Regional Weather Roundup
Issued by NWS Charleston, SC

Current Version | Previous Version | Text Only | Print | Product List | Glossary Off
Versions: 1 2 3 4 5 6 7 8 9 10 11 12 13 14 15 16 17 18 19 20 21 22 23 24 25 26 27 28 29 30 31 32 33 34 35 36 37 38 39 40 41 42 43 44 45 46 47 48 49 50

000
ASUS42 KCHS 212225
RWRCHS

REGIONAL WEATHER ROUNDUP
NATIONAL WEATHER SERVICE CHARLESTON SC
600 PM EDT SUN SEP 21 2014

NOTE: "FAIR" INDICATES FEW OR NO CLOUDS BELOW 12,000 FEET WITH NO
SIGNIFICANT WEATHER AND/OR OBSTRUCTIONS TO VISIBILITY.

NOT ALL STATIONS ARE QUALITY CONTROLLED BY THE NATIONAL
WEATHER SERVICE. USE DATA WITH CAUTION...ESPECIALLY
DEWPOINT OBSERVATIONS.

SCZ027-030-031-034>040-042>050-212300-
...SOUTH CAROLINA...

CITY           SKY/WX    TMP DP  RH WIND       PRES   REMARKS
N CHARLESTON   MOSUNNY   85  62  46 SW8       29.90R
WATERFRONT PRK   N/A     88 N/A N/A W7          N/A
FORT JOHNSON   NOT AVBL
MOUNT PLEASANT FAIR      84  64  51 SW3       29.90R
JOHNS ISLAND   CLEAR     84  72  65 CALM      29.91S
PINOPOLIS        N/A     88  66  48 W7        29.81S HX  90
MONCKS CORNER    N/A     86  70  58 CALM      29.89R HX  90
SUMMERVILLE    FAIR      86  68  54 SW3       29.90S
BEAUFORT MCAS  MOSUNNY   85  64  49 W8        29.91R
BEAUFORT ARPT  FAIR      86  64  48 W9        29.91S
HILTON HEAD IS SUNNY     86  59  39 W6        29.92S
GEORGETOWN     NOT AVBL
WALTERBORO     PTCLDY    86  57  37 SW7       29.91R
ORANGEBURG     MOSUNNY   86  60  41 W10       29.89S
BARNWELL       FAIR      86  63  45 W9        29.91R
AIKEN          FAIR      84  68  58 SW9       29.94S
MANNING        FAIR      84  66  54 SW3       29.88R
KINGSTREE      NOT AVBL
COLUMBIA       MOSUNNY   88  61  40 W13       29.86F
SUMTER         SUNNY     87  65  48 SW8       29.85F
FLORENCE       SUNNY     86  63  45 W10       29.85S
MYRTLE BEACH   SUNNY     86  63  45 W9        29.87R
N MYRTLE BEACH SUNNY     84  63  49 W6        29.86R

$$

GAZ063-065-086>088-099>101-113>116-118-119-134-136>141-150-212300-
...GEORGIA...

CITY           SKY/WX    TMP DP  RH WIND       PRES   REMARKS
SAVANNAH ARPT  MOSUNNY   88  61  40 NW7       29.92S
HUNTER AAF     SUNNY     86  63  45 W5        29.91R
FORT STEWART   SUNNY     88  58  36 W7        29.92R
STATESBORO     NOT AVBL
SYLVANIA       PTCLDY    84  70  63 SW3       29.93R
CLAXTON        FAIR      86  68  54 W5        29.94R
THOMSON        SUNNY     87  70  57 W5        29.96R HX  91
AUGUSTA-BUSH   SUNNY     87  61  41 W13       29.89F
AUGUSTA-DANIEL SUNNY     87  61  41 VRB7      29.91F
SWAINSBORO     FAIR      88  64  45 W7        29.95R
VIDALIA        MOSUNNY   86  61  42 NW6       29.96R
ALMA           SUNNY     87  53  31 VRB3      29.94S
WAYCROSS       NOT AVBL
JESUP          FAIR      88  61  40 W5        29.94R
BRUNSWICK      SUNNY     82  68  61 SE3       29.95S
SAINT SIMONS   MOSUNNY   82  66  58 S7        29.95R

$$

SCZ027-028-034-036>038-045-046-048>050-GAZ119-141-212300-
...LAKE AND SUPPLEMENTAL COASTAL OBSERVATIONS...

STATION/POSITION TIME  TEMP    WIND        PRES    WAVE   SWELL
                       AIR SEA DIR/SP/G            HT/PER HT/PER/DIR
                 (UTC) (F)     (DEG/KT/KT) (MB)    (FT/S) (FT/S/D)
UPR LAKE MARION  NOT AVBL
WINYAH BAY       2200   84     250/  7     1011.0S
LAKE MURRAY      2100   85     270/  8/ 15 1010.8S
ACE BASIN NERRS  2200   87     280/  2     1013.0S
FORT PULASKI     2200   85     280/  9/ 10 1013.4R
SAPELO ISLAND    2200   85     160/  8     1014.0S

$$

ANZ835-935-AMZ111-154-330-350-352-354-374-450-454-472-212300-
...C-MAN AND BUOY OBSERVATIONS...

STATION/POSITION TIME  TEMP    WIND        PRES    WAVE   SWELL
                       AIR SEA DIR/SP/G            HT/PER HT/PER/DIR
                 (UTC) (F)     (DEG/KT/KT) (MB)    (FT/S) (FT/S/D)
FOLLY BEACH CMAN 2200   84     240/  7/  8 1013.1R
BUOY 41004       2200   80 82  240/ 12/ 14 1012.3R   4/ 7   3/ 7
BUOY 41008       2200   81 83  190/ 12/ 14 1013.6F   2/ 6   2/ 80/ 6
5E ST. MARYS GA  2200      84                N/A     3/ 5
FRYING PAN BUOY  NOT AVBL
BUOY 41025       2200   78     260/ 14/ 17 1008.5R   6/ 9   5/130/ 9
CAPE LOOKOUT NC  2200   78     240/  5/  7 1009.8R
BUOY 41002       2058   80 81  270/ 14/ 17 1012.7   10/ 8   8/250/ 8
BUOY 41010       2200   82 85  310/  6/  8 1014.9S   5/10   5/ 10/10
BUOY 41012       NOT AVBL
ST AUGUSTINE FL  2200   80      90/  2/  3 1015.9R
CAPERS NEARSHORE 2100   85     210/  6/  8   N/A
FRIPP NEARSHORE  NOT AVBL


$$


USA.gov is the U.S. government's official web portal to all federal, state and local government web resources and services.